[[{"header":{"parameterUnit":"m.s-1","parameterCategory":1,"la1":30.2991,"la2":30.254,"lo1":-89.0895,"lo2":-89.0444,"dy":0.0017,"dx":0.0017,"nx":28,"ny":28,"refTime":"2023-09-11T03:00:00:Z","depth":0,"parameterNumber":2,"parameterNumberName":"U-component_of_WINDS"},"data":[0,0,0,0,0,0,0,0,0,0,0,0,0,0,0,0,0,0,0,0,0,0,0,0,0,0,0,0,0,0,0,0,0,0,0,0,0,0,0,0,0,0,0,0,0,0,0,0,0,0,0,0,0,0,0,0,0,0,-2.446,-2.446,0,-2.4398,-2.4398,-2.4397,-2.4315,-2.4314,-2.4312,-2.4311,-2.4247,-2.4247,-2.4246,0,0,0,0,0,0,0,0,0,0,0,0,0,-2.4508,-2.4508,-2.446,-2.446,-2.4459,-2.4399,-2.4398,-2.4397,-2.4315,-2.4314,-2.4312,-2.431,-2.4247,-2.4247,-2.4246,0,0,0,0,0,0,0,0,0,0,0,0,0,-2.4471,-2.4508,-2.446,-2.4411,-2.4406,-2.4399,-2.4398,-2.4397,-2.4316,-2.4314,-2.4312,-2.431,-2.4248,-2.4247,-2.4246,-2.4283,0,0,-2.4244,-2.4244,0,0,0,0,0,0,0,0,-2.4473,-2.4469,-2.4419,-2.4414,-2.4409,-2.4362,-2.4391,-2.4358,-2.4316,-2.435,-2.4311,-2.4309,-2.4287,-2.4283,-2.4276,-2.428,-2.4277,-2.4244,-2.4244,-2.4244,-2.4243,0,0,0,0,0,0,0,-2.4476,-2.4472,-2.4436,-2.4418,-2.4412,-2.4392,-2.4384,-2.4385,-2.4331,-2.4347,-2.4341,-2.4334,-2.4284,-2.4277,-2.4274,-2.4276,-2.4244,-2.4244,-2.4243,-2.4243,-2.4307,-2.4309,0,0,0,0,0,0,-2.4486,-2.4474,-2.4438,-2.4434,-2.4437,-2.4393,-2.4384,-2.4379,-2.433,-2.4321,-2.4336,-2.4331,-2.4279,-2.4275,-2.4271,-2.4311,-2.4244,-2.4243,-2.4243,-2.4305,-2.4308,-2.431,0,0,0,0,0,0,-2.4487,-2.4483,-2.444,-2.4452,-2.4445,-2.4394,-2.4389,-2.4379,-2.4372,-2.4322,-2.4312,-2.4339,-2.4277,-2.4272,-2.4281,-2.4307,-2.4243,-2.4242,-2.4303,-2.4306,-2.4309,-2.439,0,0,0,0,0,0,-2.4489,-2.4484,-2.4498,-2.4453,-2.4445,-2.4451,-2.4391,-2.4379,-2.4371,-2.4363,-2.4322,-2.4313,-2.4275,-2.4282,-2.428,-2.4305,-2.4242,-2.43,-2.4304,-2.4308,-2.4385,-2.4396,-2.4405,0,0,0,0,0,-2.4491,-2.4523,-2.4499,-2.4495,-2.446,-2.4452,-2.4448,-2.4403,-2.4373,-2.4386,-2.4355,-2.4315,-2.4305,-2.4284,-2.4281,-2.4306,-2.4298,-2.4303,-2.4308,-2.438,-2.4394,-2.4405,0,0,0,0,0,0,-2.4571,-2.4516,-2.4489,-2.4507,-2.4485,-2.4439,-2.4453,-2.4419,-2.4404,-2.4398,-2.4343,-2.4335,-2.435,-2.4329,-2.4306,-2.4339,-2.4296,-2.43,-2.4352,-2.4364,-2.4374,-2.4379,-2.4241,0,0,0,0,0,-2.4591,-2.4589,-2.4541,-2.4562,-2.4553,-2.4505,-2.45,-2.4468,-2.4443,-2.4433,-2.4402,-2.4379,-2.4371,-2.4367,-2.4356,-2.4382,-2.4372,-2.4398,-2.4408,-2.4417,-2.4421,-2.4433,-2.4444,-2.4326,-2.4326,-2.4325,0,0,-2.4632,-2.4602,-2.4604,-2.4578,-2.4557,-2.4556,-2.4498,-2.4499,-2.4498,-2.4433,-2.4439,-2.4416,-2.4387,-2.4404,-2.441,-2.4387,-2.4452,-2.4423,-2.443,-2.4429,-2.4439,-2.4451,-2.4461,-2.4329,-2.4328,-2.4328,0,0,-2.4706,-2.4683,-2.4698,-2.4679,-2.4648,-2.4617,-2.4621,-2.4579,-2.4561,-2.4567,-2.4518,-2.4516,-2.4503,-2.4484,-2.4473,-2.4542,-2.4505,-2.454,-2.4593,-2.4605,-2.4615,-2.4623,-2.4647,-2.4657,-2.4545,-2.4545,-2.4545,0,-2.4761,-2.4758,-2.471,-2.4715,-2.4705,-2.4647,-2.4661,-2.4645,-2.4613,-2.4607,-2.4582,-2.4565,-2.4541,-2.4553,-2.457,-2.4564,-2.4566,-2.4544,-2.4617,-2.4625,-2.4632,-2.4654,-2.4664,-2.455,-2.4549,-2.4549,-2.4548,0,-2.4826,-2.4825,-2.4841,-2.4812,-2.4804,-2.4814,-2.4768,-2.4765,-2.4734,-2.4706,-2.4712,-2.4682,-2.4665,-2.4666,-2.4635,-2.4674,-2.4661,-2.4627,-2.4582,-2.4648,-2.4669,-2.4677,-2.4556,-2.4554,-2.4553,-2.4552,0,0,-2.4948,-2.4893,-2.49,-2.4886,-2.4848,-2.4846,-2.4854,-2.4838,-2.4837,-2.4817,-2.4822,-2.4813,-2.4782,-2.477,-2.4737,-2.4748,-2.4804,-2.4713,-2.4711,-2.4731,-2.4845,-2.487,-2.4881,-2.478,-2.4781,-2.4783,-2.4848,0,-2.5014,-2.5024,-2.4982,-2.5003,-2.5001,-2.4947,-2.4953,-2.4931,-2.4905,-2.49,-2.4871,-2.4866,-2.4825,-2.4818,-2.4826,-2.4796,-2.4827,-2.4791,-2.4784,-2.4784,-2.4792,-2.4892,-2.4918,-2.4981,-2.4855,-2.4857,-2.4858,0,-2.5093,-2.5078,-2.5099,-2.5061,-2.5058,-2.5065,-2.5047,-2.5043,-2.5017,-2.4997,-2.4984,-2.4947,-2.4952,-2.491,-2.4916,-2.4892,-2.4887,-2.4872,-2.4874,-2.4871,-2.4824,-2.4891,-2.4999,-2.5009,-2.487,-2.4869,-2.4868,0,-2.5179,-2.5164,-2.5175,-2.5165,-2.5121,-2.5127,-2.5109,-2.5081,-2.5074,-2.5058,-2.5053,-2.5039,-2.503,-2.502,-2.4979,-2.4953,-2.4991,-2.4945,-2.4974,-2.4975,-2.4984,-2.4983,-2.5092,-2.4982,-2.4982,-2.4982,-2.4981,0,-2.5258,-2.5272,-2.5213,-2.5219,-2.5234,-2.5187,-2.5203,-2.5179,-2.5155,-2.5156,-2.5108,-2.511,-2.5057,-2.5053,-2.5022,-2.5032,-2.5029,-2.5013,-2.5004,-2.5016,-2.5019,-2.5012,-2.5006,-2.4984,-2.4984,-2.4983,-2.4983,0,-2.5356,-2.5317,-2.5324,-2.5283,-2.5273,-2.5286,-2.525,-2.5254,-2.5226,-2.5228,-2.5225,-2.518,-2.5173,-2.5132,-2.5116,-2.5095,-2.5116,-2.5099,-2.5125,-2.5119,-2.515,-2.5148,-2.5258,-2.527,-2.5153,-2.5154,-2.5155,0,-2.5408,-2.5418,-2.5378,-2.5375,-2.5359,-2.5356,-2.5349,-2.5302,-2.5297,-2.5269,-2.5277,-2.5266,-2.5255,-2.5247,-2.5213,-2.52,-2.5182,-2.5222,-2.518,-2.5192,-2.5182,-2.5182,-2.5182,-2.523,-2.5232,-2.5233,-2.5234,0,-2.5505,-2.5485,-2.5476,-2.5462,-2.5454,-2.544,-2.5423,-2.5424,-2.5373,-2.5369,-2.5362,-2.5354,-2.5337,-2.5327,-2.5309,-2.529,-2.5254,-2.5248,-2.5254,-2.5266,-2.5281,-2.5273,-2.5149,-2.5245,-2.5244,-2.5243,-2.5243,-2.5242,-2.5581,-2.5587,-2.556,-2.5552,-2.5535,-2.5521,-2.5523,-2.5495,-2.5488,-2.5471,-2.5444,-2.5441,-2.5415,-2.5387,-2.5372,-2.5369,-2.5347,-2.5356,-2.5358,-2.5361,-2.5367,-2.5282,-2.5365,-2.5365,-2.5365,-2.5364,-2.5364,0,-2.5674,-2.5654,-2.5648,-2.5626,-2.562,-2.5587,-2.5567,-2.5564,-2.5562,-2.5541,-2.5532,-2.5524,-2.5514,-2.548,-2.5467,-2.5471,-2.5454,-2.5469,-2.5468,-2.5464,-2.5387,-2.5383,-2.5483,-2.5483,-2.5483,-2.5483,-2.5483,-2.5483,-2.5722,-2.5732,-2.5709,-2.571,-2.569,-2.5686,-2.5677,-2.5664,-2.5647,-2.564,-2.5632,-2.561,-2.5584,-2.5569,-2.5559,-2.5549,-2.5547,-2.5567,-2.5552,-2.5481,-2.5469,-2.5458,-2.5454,-2.5567,-2.5567,-2.5629,-2.5629,-2.563]},{"header":{"parameterUnit":"m.s-1","parameterCategory":1,"la1":30.2991,"la2":30.254,"lo1":-89.0895,"lo2":-89.0444,"dy":0.0017,"dx":0.0017,"nx":28,"ny":28,"refTime":"2023-09-11T03:00:00:Z","depth":0,"parameterNumber":3,"parameterNumberName":"V-component_of_WINDS"},"data":[0,0,0,0,0,0,0,0,0,0,0,0,0,0,0,0,0,0,0,0,0,0,0,0,0,0,0,0,0,0,0,0,0,0,0,0,0,0,0,0,0,0,0,0,0,0,0,0,0,0,0,0,0,0,0,0,0,0,-0.0517,-0.0517,0,-0.0467,-0.0466,-0.0466,-0.0421,-0.0421,-0.042,-0.042,-0.0368,-0.0367,-0.0366,0,0,0,0,0,0,0,0,0,0,0,0,0,-0.0572,-0.0572,-0.0517,-0.0517,-0.0516,-0.0467,-0.0466,-0.0466,-0.0421,-0.0421,-0.042,-0.042,-0.0368,-0.0367,-0.0366,0,0,0,0,0,0,0,0,0,0,0,0,0,-0.0538,-0.0571,-0.0517,-0.0488,-0.0485,-0.0467,-0.0466,-0.0466,-0.0422,-0.0421,-0.042,-0.0419,-0.0368,-0.0367,-0.0366,-0.0373,0,0,-0.0361,-0.0361,0,0,0,0,0,0,0,0,-0.054,-0.0536,-0.0493,-0.049,-0.0486,-0.045,-0.0467,-0.0434,-0.0422,-0.0446,-0.042,-0.0419,-0.0396,-0.0392,-0.0384,-0.037,-0.0368,-0.0361,-0.0361,-0.036,-0.036,0,0,0,0,0,0,0,-0.0543,-0.0538,-0.0497,-0.0492,-0.0488,-0.0477,-0.0471,-0.046,-0.0425,-0.0443,-0.044,-0.0435,-0.0394,-0.0386,-0.0383,-0.0367,-0.0361,-0.036,-0.0359,-0.0359,-0.0355,-0.0356,0,0,0,0,0,0,-0.055,-0.054,-0.0499,-0.0496,-0.0512,-0.0476,-0.047,-0.0462,-0.0425,-0.0419,-0.0436,-0.0433,-0.0388,-0.0384,-0.0381,-0.0385,-0.036,-0.0359,-0.0358,-0.0354,-0.0355,-0.0356,0,0,0,0,0,0,-0.0551,-0.0546,-0.0501,-0.0517,-0.051,-0.0476,-0.0468,-0.0462,-0.0454,-0.0419,-0.0413,-0.0434,-0.0387,-0.0382,-0.0375,-0.0383,-0.0358,-0.0357,-0.0353,-0.0354,-0.0355,-0.0396,0,0,0,0,0,0,-0.0553,-0.0547,-0.055,-0.0517,-0.051,-0.0497,-0.0468,-0.0461,-0.0451,-0.0448,-0.0416,-0.041,-0.0386,-0.0377,-0.0373,-0.0381,-0.0356,-0.0352,-0.0354,-0.0355,-0.0394,-0.0399,-0.0403,0,0,0,0,0,-0.0555,-0.0564,-0.0551,-0.0546,-0.0513,-0.0497,-0.0493,-0.0466,-0.0452,-0.0455,-0.0432,-0.0411,-0.0383,-0.0377,-0.0372,-0.0379,-0.0352,-0.0353,-0.0355,-0.0392,-0.0398,-0.0402,0,0,0,0,0,0,-0.0598,-0.0559,-0.0544,-0.0543,-0.0524,-0.049,-0.0492,-0.0472,-0.0457,-0.0454,-0.042,-0.0413,-0.0409,-0.0393,-0.0387,-0.0383,-0.0364,-0.0365,-0.0394,-0.0399,-0.0403,-0.0407,-0.0355,0,0,0,0,0,-0.0608,-0.0599,-0.0565,-0.0567,-0.0558,-0.0527,-0.0519,-0.0499,-0.0478,-0.047,-0.0447,-0.0427,-0.0413,-0.0405,-0.0391,-0.0391,-0.0383,-0.0394,-0.0398,-0.0402,-0.0403,-0.04,-0.0405,-0.0361,-0.0361,-0.0361,0,0,-0.0627,-0.0605,-0.0601,-0.0575,-0.0558,-0.0549,-0.052,-0.0512,-0.0505,-0.0469,-0.046,-0.0442,-0.0418,-0.0414,-0.0411,-0.04,-0.0413,-0.0404,-0.0407,-0.0406,-0.0403,-0.0407,-0.041,-0.0362,-0.0362,-0.0362,0,0,-0.0658,-0.064,-0.0639,-0.0623,-0.0597,-0.0576,-0.0576,-0.0545,-0.0532,-0.0522,-0.0495,-0.0485,-0.0462,-0.0445,-0.0434,-0.0457,-0.0436,-0.0453,-0.0475,-0.0473,-0.0477,-0.0479,-0.0487,-0.049,-0.0454,-0.0454,-0.0454,0,-0.0685,-0.0671,-0.0642,-0.0635,-0.0624,-0.059,-0.0588,-0.0574,-0.0545,-0.0537,-0.0526,-0.0496,-0.0477,-0.0468,-0.0474,-0.0466,-0.0463,-0.0456,-0.0478,-0.0481,-0.0483,-0.049,-0.0493,-0.0456,-0.0456,-0.0456,-0.0455,0,-0.0705,-0.0696,-0.0698,-0.0671,-0.066,-0.0656,-0.0625,-0.0617,-0.0598,-0.0578,-0.0568,-0.0544,-0.0523,-0.0519,-0.0501,-0.0507,-0.0502,-0.0485,-0.0465,-0.049,-0.0496,-0.0498,-0.0459,-0.0458,-0.0458,-0.0457,0,0,-0.0763,-0.0719,-0.072,-0.0707,-0.0675,-0.0667,-0.0661,-0.0641,-0.0634,-0.0615,-0.0608,-0.0589,-0.0573,-0.056,-0.0539,-0.0537,-0.0556,-0.0521,-0.0519,-0.0528,-0.056,-0.0573,-0.0576,-0.0542,-0.0542,-0.0542,-0.0562,0,-0.0788,-0.0776,-0.0748,-0.0744,-0.0734,-0.0701,-0.0696,-0.0675,-0.0656,-0.0644,-0.0622,-0.0609,-0.0589,-0.0581,-0.0577,-0.0554,-0.0562,-0.0552,-0.0534,-0.0534,-0.0542,-0.0579,-0.0593,-0.0612,-0.0564,-0.0564,-0.0564,0,-0.0817,-0.0799,-0.0794,-0.0762,-0.0757,-0.0752,-0.0731,-0.072,-0.0696,-0.0682,-0.0666,-0.0643,-0.0633,-0.0615,-0.0601,-0.0595,-0.0586,-0.0573,-0.0573,-0.0571,-0.0551,-0.0577,-0.0618,-0.0621,-0.0568,-0.0567,-0.0567,0,-0.0859,-0.0834,-0.0827,-0.0817,-0.0779,-0.0777,-0.0761,-0.0736,-0.0725,-0.0706,-0.0699,-0.0679,-0.0668,-0.0653,-0.0624,-0.0614,-0.0613,-0.0592,-0.06,-0.0601,-0.0602,-0.0602,-0.0642,-0.0596,-0.0596,-0.0596,-0.0596,0,-0.089,-0.0888,-0.0845,-0.0841,-0.0837,-0.0805,-0.0802,-0.0783,-0.0761,-0.0752,-0.0722,-0.0714,-0.0677,-0.0664,-0.0641,-0.0632,-0.0628,-0.0615,-0.0609,-0.0618,-0.062,-0.0612,-0.0609,-0.0597,-0.0597,-0.0596,-0.0596,0,-0.0936,-0.0908,-0.0898,-0.0863,-0.0854,-0.0853,-0.0823,-0.0817,-0.0795,-0.0784,-0.0779,-0.0745,-0.0728,-0.0698,-0.0673,-0.0658,-0.0653,-0.0643,-0.0662,-0.0658,-0.0667,-0.0667,-0.0703,-0.0706,-0.0659,-0.066,-0.066,0,-0.0958,-0.0956,-0.092,-0.0912,-0.0897,-0.0885,-0.0873,-0.0841,-0.083,-0.0802,-0.0799,-0.078,-0.0763,-0.0738,-0.071,-0.069,-0.0679,-0.0693,-0.0676,-0.0684,-0.0679,-0.0679,-0.0678,-0.0697,-0.0698,-0.0698,-0.0699,0,-0.0999,-0.0985,-0.097,-0.095,-0.0937,-0.092,-0.0901,-0.0896,-0.0859,-0.0848,-0.0831,-0.0817,-0.0791,-0.0772,-0.0748,-0.0731,-0.0708,-0.0704,-0.0705,-0.0714,-0.0724,-0.0718,-0.0672,-0.0704,-0.0703,-0.0703,-0.0703,-0.0703,-0.1034,-0.103,-0.1004,-0.0988,-0.097,-0.0952,-0.0945,-0.0922,-0.0907,-0.0883,-0.0865,-0.0849,-0.0822,-0.0788,-0.0772,-0.0758,-0.0747,-0.0749,-0.0749,-0.0749,-0.0753,-0.0727,-0.0753,-0.0753,-0.0753,-0.0753,-0.0753,0,-0.1073,-0.1054,-0.104,-0.1014,-0.1001,-0.0981,-0.0959,-0.0949,-0.0935,-0.0913,-0.0897,-0.0876,-0.0857,-0.0827,-0.0806,-0.08,-0.0789,-0.0796,-0.0796,-0.0792,-0.0763,-0.0765,-0.0805,-0.0805,-0.0805,-0.0805,-0.0805,-0.0805,-0.1092,-0.1084,-0.1066,-0.1048,-0.1029,-0.1013,-0.1002,-0.0985,-0.0967,-0.0945,-0.093,-0.091,-0.0885,-0.0861,-0.0842,-0.0834,-0.0827,-0.0837,-0.0825,-0.0799,-0.0794,-0.079,-0.0791,-0.0835,-0.0836,-0.0854,-0.0855,-0.0855]}]]